2024-173E

Last updated on Fri Oct 04 2024 00:02:05 GMT+0000 (Coordinated Universal Time)

1 61231U 24173E 24277.53578185 .00009599 00000+0 39488-3 0 9990 2 61231 97.3988 350.2360 0011770 239.4826 120.5250 15.24294819 1368
UTC large
Height (km)
Speed (km/s)
/
Latitude / Longitude
Inclination (degrees)
Orbital Period (minutes)
Azimuth
Elevation
Range (km)
Doppler Factor

Next 0 passes for location: London (51.5072 / 0.1276)

Sorry there are no passes over London.